FW8253 Weather Reports


time (UTC)temp
F
wind
direction
speed
knots
gust
knots
rain 1hr
in
rain 24hr
in
rain mn
in
humidity
%
barometer
mb
20260505204512 86 232 0.0 0.0 0.00 0.00 0.00 41 1015.4
20260505204009 85 230 0.0 0.0 0.00 0.00 0.00 42 1015.6
20260505203505 85 239 0.0 0.0 0.00 0.00 0.00 40 1015.5
20260505203002 86 234 0.0 0.0 0.00 0.00 0.00 42 1015.4
20260505202459 86 242 0.0 0.0 0.00 0.00 0.00 45 1015.7
20260505201954 87 225 0.0 0.0 0.00 0.00 0.00 42 1015.6
20260505201452 86 203 0.0 0.0 0.00 0.00 0.00 45 1015.7
20260505200949 85 214 0.0 0.0 0.00 0.00 0.00 44 1015.8
20260505200447 86 46 0.0 0.0 0.00 0.00 0.00 43 1016.0
20260505195942 85 247 0.0 0.0 0.00 0.00 0.00 42 1016.1
20260505195440 84 226 0.0 0.0 0.00 0.00 0.00 48 1016.3
20260505194937 84 230 0.0 0.0 0.00 0.00 0.00 44 1016.0
20260505194434 84 345 0.0 0.0 0.00 0.00 0.00 42 1016.4
20260505193934 83 239 0.0 0.0 0.00 0.00 0.00 48 1016.3
20260505193432 83 228 0.0 0.0 0.00 0.00 0.00 45 1016.4
20260505192930 82 227 0.0 0.0 0.00 0.00 0.00 47 1016.2
20260505192428 84 224 0.0 0.0 0.00 0.00 0.00 47 1016.5
20260505191925 86 207 0.0 0.0 0.00 0.00 0.00 44 1016.5
20260505191424 86 231 0.0 0.0 0.00 0.00 0.00 43 1016.7
20260505190920 85 170 0.0 0.0 0.00 0.00 0.00 41 1016.8
20260505190415 84 217 0.0 0.0 0.00 0.00 0.00 49 1017.0
20260505185911 84 296 0.0 0.0 0.00 0.00 0.00 44 1017.0
20260505185409 84 205 0.0 0.0 0.00 0.00 0.00 47 1017.2
20260505184904 84 212 0.0 0.0 0.00 0.00 0.00 45 1017.0
20260505184401 82 242 0.0 0.0 0.00 0.00 0.00 45 1017.3
20260505183858 84 240 0.0 0.0 0.00 0.00 0.00 47 1017.5
20260505183355 85 239 0.0 0.0 0.00 0.00 0.00 40 1017.5
20260505182852 84 279 0.0 0.0 0.00 0.00 0.00 40 1017.7
20260505182349 85 250 0.0 0.0 0.00 0.00 0.00 46 1017.8
20260505181845 86 104 0.0 0.0 0.00 0.00 0.00 45 1017.7
20260505181343 85 255 0.0 0.0 0.00 0.00 0.00 43 1017.7
20260505180839 83 233 0.0 0.0 0.00 0.00 0.00 48 1017.9
20260505180336 84 139 0.0 0.0 0.00 0.00 0.00 43 1018.0
20260505175832 82 260 0.0 0.0 0.00 0.00 0.00 48 1017.8
20260505175329 84 152 0.0 0.0 0.00 0.00 0.00 42 1018.2
20260505174825 83 200 0.0 0.0 0.00 0.00 0.00 46 1018.2
20260505174323 85 225 0.0 0.0 0.00 0.00 0.00 49 1017.9
20260505173819 84 210 0.0 0.0 0.00 0.00 0.00 46 1017.9
20260505173315 85 226 0.0 0.0 0.00 0.00 0.00 49 1018.1
20260505172813 84 275 0.0 0.0 0.00 0.00 0.00 46 1018.1
20260505172310 84 211 0.0 0.0 0.00 0.00 0.00 50 1018.0
20260505171804 82 296 0.0 0.0 0.00 0.00 0.00 45 1018.0
20260505171301 83 282 0.0 0.0 0.00 0.00 0.00 46 1018.0
20260505170758 83 259 0.0 0.0 0.00 0.00 0.00 45 1018.1
20260505170255 84 209 0.0 0.0 0.00 0.00 0.00 49 1018.0
20260505165755 82 257 0.0 0.0 0.00 0.00 0.00 47 1018.1
20260505165251 81 264 0.0 0.0 0.00 0.00 0.00 47 1018.3
20260505164747 79 321 0.0 0.0 0.00 0.00 0.00 52 1018.4
20260505164245 80 231 0.0 0.0 0.00 0.00 0.00 56 1018.4
20260505163743 82 219 0.0 0.0 0.00 0.00 0.00 52 1018.6
20260505163241 82 224 0.0 0.0 0.00 0.00 0.00 54 1018.5
20260505162738 81 260 0.0 0.0 0.00 0.00 0.00 54 1018.5
20260505162235 81 10 0.0 0.0 0.00 0.00 0.00 54 1018.7
20260505161732 81 204 0.0 0.0 0.00 0.00 0.00 57 1018.6
20260505161230 81 158 0.0 0.0 0.00 0.00 0.00 58 1018.6
20260505160727 80 156 0.0 0.0 0.00 0.00 0.00 58 1018.8
20260505160225 78 197 0.0 0.0 0.00 0.00 0.00 60 1018.5
20260505153203 78 286 0.0 0.0 0.00 0.00 0.00 58 1019.3
20260505152700 78 199 0.0 0.0 0.00 0.00 0.00 62 1019.2
20260505152156 78 225 0.0 0.0 0.00 0.00 0.00 61 1019.0
20260505151651 78 184 0.0 0.0 0.00 0.00 0.00 61 1019.2
20260505151149 77 221 0.0 0.0 0.00 0.00 0.00 64 1019.0
20260505150645 78 209 0.0 0.0 0.00 0.00 0.00 62 1019.0
20260505150142 77 158 0.0 0.0 0.00 0.00 0.00 64 1019.3
20260505140611 71 231 0.0 0.0 0.00 0.00 0.00 74 1019.2
20260505140108 70 184 0.0 0.0 0.00 0.00 0.00 74 1019.0
20260505125024 62 164 0.0 0.0 0.00 0.00 0.00 88 1019.4
20260505124521 60 195 0.0 0.0 0.00 0.00 0.00 95 1019.1
20260505124017 58 169 0.0 0.0 0.00 0.00 0.00 97 1018.9
20260505123514 58 223 0.0 0.0 0.00 0.00 0.00 99 1019.0
20260505123010 57 187 0.0 0.0 0.00 0.00 0.00 99 1019.2
20260505122507 56 152 0.0 0.0 0.00 0.00 0.00 99 1019.0
20260505122004 56 181 0.0 0.0 0.00 0.00 0.00 99 1019.1
20260505121501 55 185 0.0 0.0 0.00 0.00 0.00 99 1019.0
20260505120957 54 185 0.0 0.0 0.00 0.00 0.00 99 1018.9
20260505120453 53 185 0.0 0.0 0.00 0.00 0.00 99 1018.8
20260505115952 53 185 0.0 0.0 0.00 0.00 0.00 99 1018.8
20260505115449 53 185 0.0 0.0 0.00 0.00 0.00 99 1018.7
20260505114947 52 185 0.0 0.0 0.00 0.00 0.00 99 1018.7
20260505114443 52 185 0.0 0.0 0.00 0.00 0.00 99 1018.6
20260505113940 51 185 0.0 0.0 0.00 0.00 0.00 99 1018.6
20260505113436 51 185 0.0 0.0 0.00 0.00 0.00 99 1018.5
20260505112932 51 185 0.0 0.0 0.00 0.00 0.00 99 1018.7
20260505112430 51 185 0.0 0.0 0.00 0.00 0.00 99 1018.6
20260505111926 51 185 0.0 0.0 0.00 0.00 0.00 99 1018.7
20260505111420 50 185 0.0 0.0 0.00 0.00 0.00 99 1018.5
20260505110917 50 185 0.0 0.0 0.00 0.00 0.00 99 1018.5
20260505110414 50 185 0.0 0.0 0.00 0.00 0.00 99 1018.3
20260505101845 50 185 0.0 0.0 0.00 0.00 0.00 99 1017.9
20260505101339 50 185 0.0 0.0 0.00 0.00 0.00 99 1018.1
20260505100835 50 180 0.0 0.0 0.00 0.00 0.00 99 1018.0
20260505100333 50 181 0.0 0.0 0.00 0.00 0.00 99 1018.1
20260505095828 50 195 0.0 0.0 0.00 0.00 0.00 99 1018.0
20260505095326 50 195 0.0 0.0 0.00 0.00 0.00 99 1018.1
20260505094821 50 195 0.0 0.0 0.00 0.00 0.00 99 1018.1
20260505094319 50 195 0.0 0.0 0.00 0.00 0.00 99 1018.2
20260505093814 50 195 0.0 0.0 0.00 0.00 0.00 99 1018.1
20260505093312 50 194 0.0 0.0 0.00 0.00 0.00 99 1018.0
20260505092808 50 195 0.0 0.0 0.00 0.00 0.00 99 1017.9
20260505092307 50 195 0.0 0.0 0.00 0.00 0.00 99 1017.9
20260505091804 50 195 0.0 0.0 0.00 0.00 0.00 99 1018.0
20260505091302 50 195 0.0 0.0 0.00 0.00 0.00 99 1018.1
20260505090800 51 195 0.0 0.0 0.00 0.00 0.00 99 1017.9
20260505090258 50 195 0.0 0.0 0.00 0.00 0.00 99 1017.9
20260505085755 51 195 0.0 0.0 0.00 0.00 0.00 99 1018.0
20260505085253 51 195 0.0 0.0 0.00 0.00 0.00 99 1017.9
20260505084750 51 195 0.0 0.0 0.00 0.00 0.00 99 1018.0
20260505084249 51 195 0.0 0.0 0.00 0.00 0.00 99 1017.8
20260505083745 51 194 0.0 0.0 0.00 0.00 0.00 99 1017.6
20260505083242 51 195 0.0 0.0 0.00 0.00 0.00 99 1017.8
20260505082739 51 195 0.0 0.0 0.00 0.00 0.00 99 1017.6
20260505082236 51 195 0.0 0.0 0.00 0.00 0.00 99 1017.7
20260505081732 51 195 0.0 0.0 0.00 0.00 0.00 98 1017.7
20260505081229 51 195 0.0 0.0 0.00 0.00 0.00 98 1017.6
20260505080726 51 195 0.0 0.0 0.00 0.00 0.00 98 1017.7
20260505080221 51 195 0.0 0.0 0.00 0.00 0.00 98 1017.8
20260505075717 51 194 0.0 0.0 0.00 0.00 0.00 98 1017.7
20260505075215 51 195 0.0 0.0 0.00 0.00 0.00 98 1017.7
20260505074712 52 195 0.0 0.0 0.00 0.00 0.00 98 1017.6
20260505074209 52 195 0.0 0.0 0.00 0.00 0.00 98 1017.7
20260505073707 52 194 0.0 0.0 0.00 0.00 0.00 98 1017.2
20260505073204 52 195 0.0 0.0 0.00 0.00 0.00 98 1017.4
20260505072700 52 194 0.0 0.0 0.00 0.00 0.00 98 1017.4
20260505072156 52 195 0.0 0.0 0.00 0.00 0.00 97 1017.2
20260505071652 52 195 0.0 0.0 0.00 0.00 0.00 97 1017.4
20260505071150 52 195 0.0 0.0 0.00 0.00 0.00 97 1017.7
20260505070647 52 195 0.0 0.0 0.00 0.00 0.00 97 1017.8
20260505070143 52 195 0.0 0.0 0.00 0.00 0.00 97 1017.4
20260505065639 52 195 0.0 0.0 0.00 0.00 0.00 96 1017.6
20260505065136 52 195 0.0 0.0 0.00 0.00 0.00 96 1017.6
20260505064633 52 195 0.0 0.0 0.00 0.00 0.00 96 1017.8
20260505064131 52 195 0.0 0.0 0.00 0.00 0.00 95 1017.6
20260505063628 53 195 0.0 0.0 0.00 0.00 0.00 95 1017.7
20260505063124 53 195 0.0 0.0 0.00 0.00 0.00 95 1017.7
20260505062621 53 195 0.0 0.0 0.00 0.00 0.00 94 1017.6
20260505062118 53 195 0.0 0.0 0.00 0.00 0.00 94 1017.6
20260505061615 53 195 0.0 0.0 0.00 0.00 0.00 93 1017.9
20260505061113 54 195 0.0 0.0 0.00 0.00 0.00 93 1017.8
20260505060610 54 195 0.0 0.0 0.00 0.00 0.00 93 1017.8
20260505060107 54 195 0.0 0.0 0.00 0.00 0.00 93 1017.8
20260505055602 54 195 0.0 0.0 0.00 0.00 0.00 92 1017.8
20260505055059 54 195 0.0 0.0 0.00 0.00 0.00 92 1018.0
20260505054556 55 195 0.0 0.0 0.00 0.00 0.00 91 1018.0
20260505054055 55 195 0.0 0.0 0.00 0.00 0.00 91 1017.8
20260505053551 55 195 0.0 0.0 0.00 0.00 0.00 90 1017.8
20260505053048 55 195 0.0 0.0 0.00 0.00 0.00 89 1017.8
20260505052545 56 195 0.0 0.0 0.00 0.00 0.00 89 1017.8
20260505052043 56 195 0.0 0.0 0.00 0.00 0.00 88 1017.8
20260505051539 56 195 0.0 0.0 0.00 0.00 0.00 88 1017.9
20260505051037 56 195 0.0 0.0 0.00 0.00 0.00 88 1017.8
20260505050535 56 195 0.0 0.0 0.00 0.00 0.00 87 1018.1
20260505041503 59 198 0.0 0.0 0.00 0.00 0.00 82 1018.1
20260505041000 59 198 0.0 0.0 0.00 0.00 0.00 81 1018.1
20260505040457 59 194 0.0 0.0 0.00 0.00 0.00 80 1018.2
20260505035954 59 203 0.0 0.0 0.00 0.00 0.00 80 1017.9
20260505035450 59 209 0.0 0.0 0.00 0.00 0.00 80 1018.3
20260505034948 59 209 0.0 0.0 0.00 0.00 0.00 80 1018.2
20260505034444 59 209 0.0 0.0 0.00 0.00 0.00 80 1018.2
20260505033941 59 209 0.0 0.0 0.00 0.00 0.00 80 1018.1
20260505033438 59 209 0.0 0.0 0.00 0.00 0.00 81 1018.3
20260505032936 59 209 0.0 0.0 0.00 0.00 0.00 81 1018.1
20260505032433 60 209 0.0 0.0 0.00 0.00 0.00 82 1018.1
20260505031929 60 210 0.0 0.0 0.00 0.00 0.00 82 1018.2
20260505031426 60 209 0.0 0.0 0.00 0.00 0.00 81 1017.9
20260505030923 60 210 0.0 0.0 0.00 0.00 0.00 81 1018.2
20260505030419 60 210 0.0 0.0 0.00 0.00 0.00 80 1018.4
20260505025915 60 207 0.0 0.0 0.00 0.00 0.00 81 1018.2
20260505025412 60 206 0.0 0.0 0.00 0.00 0.00 81 1018.5
20260505024911 60 207 0.0 0.0 0.00 0.00 0.00 80 1018.2
20260505024408 61 206 0.0 0.0 0.00 0.00 0.00 81 1018.0
20260505023905 61 223 0.0 0.0 0.00 0.00 0.00 81 1018.1
20260505023402 61 207 0.0 0.0 0.00 0.00 0.00 81 1017.9
20260505022859 61 175 0.0 0.0 0.00 0.00 0.00 82 1017.9
20260505022356 61 175 0.0 0.0 0.00 0.00 0.00 81 1017.9
20260505021854 61 175 0.0 0.0 0.00 0.00 0.00 81 1018.1
20260505021350 61 175 0.0 0.0 0.00 0.00 0.00 82 1017.8
20260505020846 61 175 0.0 0.0 0.00 0.00 0.00 81 1017.9
20260505020341 61 175 0.0 0.0 0.00 0.00 0.00 82 1017.8
20260505015839 61 175 0.0 0.0 0.00 0.00 0.00 81 1017.6
20260505015336 61 175 0.0 0.0 0.00 0.00 0.00 81 1017.6
20260505014833 61 175 0.0 0.0 0.00 0.00 0.00 81 1017.6
20260505014330 61 175 0.0 0.0 0.00 0.00 0.00 81 1017.4
20260505013826 62 177 0.0 0.0 0.00 0.00 0.00 81 1017.4
20260505013324 61 182 0.0 0.0 0.00 0.00 0.00 81 1017.5
20260505012822 61 182 0.0 0.0 0.00 0.00 0.00 82 1017.1
20260505012319 61 183 0.0 0.0 0.00 0.00 0.00 83 1017.2
20260505011815 61 182 0.0 0.0 0.00 0.00 0.00 83 1017.1
20260505011312 61 182 0.0 0.0 0.00 0.00 0.00 85 1017.1
20260505010808 62 182 0.0 0.0 0.00 0.00 0.00 87 1016.9
20260505010304 62 182 0.0 0.0 0.00 0.00 0.00 87 1016.8
20260505005801 62 182 0.0 0.0 0.00 0.00 0.00 87 1016.9
20260505005258 63 183 0.0 0.0 0.00 0.00 0.00 86 1016.6
20260505004755 63 183 0.0 0.0 0.00 0.00 0.00 85 1016.6
20260505004251 63 183 0.0 0.0 0.00 0.00 0.00 84 1016.4
20260505003748 64 183 0.0 0.0 0.00 0.00 0.00 84 1016.4
20260505003246 64 183 0.0 0.0 0.00 0.00 0.00 82 1016.4
20260505002742 65 183 0.0 0.0 0.00 0.00 0.00 81 1016.2
20260505002240 65 183 0.0 0.0 0.00 0.00 0.00 80 1016.4
20260505001737 66 183 0.0 0.0 0.00 0.00 0.00 77 1016.3
20260505001235 66 183 0.0 0.0 0.00 0.00 0.00 76 1016.3
20260505000731 67 183 0.0 0.0 0.00 0.00 0.00 74 1016.3
20260505000229 67 183 0.0 0.0 0.00 0.00 0.00 72 1016.3
20260504235725 68 183 0.0 0.0 0.00 0.00 0.00 71 1016.4
20260504235221 68 183 0.0 0.0 0.00 0.00 0.00 71 1016.3
20260504234719 69 183 0.0 0.0 0.00 0.00 0.00 70 1016.2
20260504234216 70 183 0.0 0.0 0.00 0.00 0.00 68 1016.2
20260504233712 70 183 0.0 0.0 0.00 0.00 0.00 66 1016.0
20260504233208 71 183 0.0 0.0 0.00 0.00 0.00 65 1015.9
20260504232706 71 183 0.0 0.0 0.00 0.00 0.00 63 1016.1
20260504232203 72 183 0.0 0.0 0.00 0.00 0.00 62 1016.1
20260504231659 73 183 0.0 0.0 0.00 0.00 0.00 63 1016.0
20260504231155 73 183 0.0 0.0 0.00 0.00 0.00 62 1016.1
20260504230652 74 183 0.0 0.0 0.00 0.00 0.00 61 1016.1
20260504230151 74 183 0.0 0.0 0.00 0.00 0.00 56 1015.9
20260504225649 75 183 0.0 0.0 0.00 0.00 0.00 55 1016.2
20260504225144 75 183 0.0 0.0 0.00 0.00 0.00 53 1016.2
20260504224642 75 184 0.0 0.0 0.00 0.00 0.00 50 1016.2
20260504224138 75 184 0.0 0.0 0.00 0.00 0.00 52 1016.2
20260504223636 76 184 0.0 0.0 0.00 0.00 0.00 47 1016.2
20260504223131 76 184 0.0 0.0 0.00 0.00 0.00 52 1016.2
20260504222628 76 184 0.0 0.0 0.00 0.00 0.00 53 1016.1
20260504222125 76 184 0.0 0.0 0.00 0.00 0.00 50 1016.4
20260504221623 76 184 0.0 0.0 0.00 0.00 0.00 49 1016.2
20260504221119 76 184 0.0 0.0 0.00 0.00 0.00 48 1016.5
20260504220616 77 184 0.0 0.0 0.00 0.00 0.00 44 1016.2
20260504220114 76 184 0.0 0.0 0.00 0.00 0.00 51 1016.4
20260504215609 77 184 0.0 0.0 0.00 0.00 0.00 48 1016.3
20260504215107 77 183 0.0 0.0 0.00 0.00 0.00 45 1016.2
20260504214603 78 210 0.0 0.0 0.00 0.00 0.00 45 1016.2
20260504214059 80 228 0.0 0.0 0.00 0.00 0.00 43 1016.2
20260504213556 80 245 0.0 0.0 0.00 0.00 0.00 44 1016.1
20260504213053 80 232 0.0 0.0 0.00 0.00 0.00 43 1016.2
20260504212549 81 247 0.0 0.0 0.00 0.00 0.00 42 1016.0
20260504212046 81 248 0.0 0.0 0.00 0.00 0.00 44 1016.0
20260504211543 80 248 0.0 0.0 0.00 0.00 0.00 37 1016.1
20260504211040 81 249 0.0 0.0 0.00 0.00 0.00 35 1016.3
20260504210537 80 247 0.0 0.0 0.00 0.00 0.00 41 1016.3
20260504210034 81 247 0.0 0.0 0.00 0.00 0.00 38 1016.2
20260504205532 81 231 0.0 0.0 0.00 0.00 0.00 37 1016.4
20260504205029 82 203 0.0 0.0 0.00 0.00 0.00 41 1016.5